Overview Statistics Trail Chart Weather Telemetry Raw packets
 

This is the latest recevied weather packets stored in our database for station/object K7SKM. If no packets are shown the sender has not sent any weather packets the latest 10 day(s).

<< 43 44 45 46 47 48 49 >>
Time Temp. Humidity Pressure Rain* Wind** Luminosity Snow
1788383409 16.67° C 76% 1009.3 hPa 1.78 mm - 76 W/m² -
1788383109 17.22° C 75% 1009.2 hPa 0 mm - 58 W/m² -
1788382808 17.22° C 74% 1009.5 hPa 1.78 mm - 59 W/m² -
1788382502 17.22° C 73% 1009.3 hPa 1.78 mm - 61 W/m² -
1788382198 17.22° C 71% 1009.3 hPa 0 mm - 57 W/m² -
1788381897 17.78° C 71% 1009.3 hPa 0 mm - 59 W/m² -
1788381593 17.78° C 69% 1009.3 hPa 0 mm - 55 W/m² -
1788381288 18.33° C 67% 1009.4 hPa 0 mm - 58 W/m² -
1788380987 18.89° C 66% 1009.3 hPa 0 mm - 72 W/m² -
1788380683 18.89° C 65% 1009.3 hPa 0 mm - 86 W/m² -
1788380380 18.89° C 64% 1009.4 hPa 0 mm - 92 W/m² -
1788380075 18.89° C 66% 1009 hPa 0 mm - 90 W/m² -
1788379774 18.89° C 66% 1009.3 hPa 0 mm - 84 W/m² -
1788379470 18.89° C 68% 1009.3 hPa 0 mm - 91 W/m² -
1788379165 18.33° C 69% 1009.3 hPa 0 mm - 94 W/m² -
1788378860 18.33° C 69% 1009.4 hPa 0 mm - 81 W/m² -
1788378554 18.33° C 71% 1009.6 hPa 0 mm - 104 W/m² -
1788378254 18.33° C 70% 1009.4 hPa 0 mm - 139 W/m² -
1788377949 17.78° C 73% 1009.5 hPa 0 mm - 163 W/m² -
1788377646 17.22° C 73% 1009.5 hPa 0 mm - 117 W/m² -
1788377344 17.22° C 76% 1009.8 hPa 0 mm - 103 W/m² -
1788377043 17.22° C 75% 1009.8 hPa 3.56 mm - 223 W/m² -
1788376736 18.33° C 69% 1009.8 hPa 3.56 mm - 69 W/m² -
1788376432 21.11° C 54% 1010 hPa 0 mm - 34 W/m² -
1788376127 22.22° C 51% 1009.3 hPa 0 mm - 53 W/m² -

* Rain latest hour (hover to see other rain measurements)
** Current wind speed in m/s (hover to see current wind gust speed)